Погода в Армавире

Поиск расширенной информации на нашем сайте:

Полезная информация:

Новости сайта



02.01.2020
Опубликован Долгосрочный прогноз погоды по городам России и ближнего зарубежья на январь 2020 года.
Карты: Прогноз на январь и февраль 2020 года, Сравнение прогнозируемой аномалии приземной температуры воздуха на январь 2020 года по разным моделям.




Погода в Армавире - сегодня

Время (UTC), дата Ветер
(°,м/с) 
Видим.   Явления Облачность Т
(°С)
Тd
(°С)
f(%) Тe
(°С)
Pmin
(гПа)
dP
(гПа)
Po
(мм)
O2
(г/м3)
Тmin Tmax R s Состояние
почвы
09 04.06.20 090 (В) 10 км    10/8 300 м верхняя 
[Cu hum|Ci sp]
+21.8 +12.3 55 +26  1012.2  -0.4  745  276           
12 04.06.20 210 (ЮЗ) 10 км    10/10 600 м кучево-дожд. 
[Cb cap]
+22.2 +13.6 58 +29  1011.7  -0.5  745  275           
15 04.06.20 020 (С) 10 км  гроза без осадков{ливн. осадки}  10/6 200 м кучево-дожд., средняя 
[Cb cap|Ac As]
+16.2 +15.2 94 +26  1013.5  1.4  746  281    +22.7  12     
18 04.06.20 330 (СЗ) 10 км  {гроза, ливн. осадки}  6/6 300 м кучево-дожд. 
[Cb cap]
+14.5 +13.5 94 +22  1015  1.4  747  283           
21 04.06.20 140 (ЮВ) 10 км    6/6 300 м 
[Sc]
+13.8 +12.9 94 +20  1016.5  1.4  748  284           
00 05.06.20 160 (Ю) 4000 м  дымка  ясно 
+12.3 +11.5 95 +17  1018.1  1.5  749  287           
03 05.06.20 190 (Ю) 10 км    ясно 
+13.2 +12.4 95 +19  1018.9  0.8  750  286  +11.5        влажная 
06 05.06.20 210 (ЮЗ) 10 км    3/0 
[Cu hum]
+19 +12.3 65 +25  1019.7  1.1  751  280           
09 05.06.20 250 (З) 10 км    8/8 600 м 
[Cu med, cong]
+22.1 +12 53 +26  1019  -0.5  750  277           
12 05.06.20 270 (З) 10 км    8/8 600 м 
[Cu med, cong]
+24.1 +12.4 48 +29  1018.8  750  275           
15 05.06.20 280 (З) 10 км    8/4 600 м верхняя 
[Sc|Ci fib]
+24.3 +11.2 44 +27  1018.6  -0.2  750  276    +24.8       
18 05.06.20 тихо ()   10 км    3/0 верхняя 
[Ci fib]
+17.2 +13.9 81 +24  1019.5  0.4  751  282           
21 05.06.20 тихо ()   10 км    ясно 
+14.4 +12.8 90 +19  1019.2  -0.4  750  285           
00 06.06.20 300 (СЗ) 10 км    ясно 
+12.5 +11.3 92 +17  1019.6  0.2  750  287           
03 06.06.20 140 (ЮВ) 10 км    3/0 верхняя 
[Ci fib]
+14.5 +12.6 88 +20  1019.7  0.3  751  285  +11.7        влажная 
06 06.06.20 130 (ЮВ) 10 км    5/0 верхняя 
[Ci fib]
+22 +13.9 60 +29  1019.7  0.5  751  277           
09 06.06.20 130 (ЮВ) 10 км    10/0 верхняя 
[Ci]
+26.6 +13.6 45 +33  1018  -1.3  750  273           
12 06.06.20 070 (В) 10 км    10/0 средняя, верхняя 
[Ac cast|Cs]
+28.4 +12.4 37 +33  1017  -0.9  749  271           
15 06.06.20 090 (В) 10 км    10/0 средняя, верхняя 
[Ac trans|Cc]
+27.9 +12.1 38 +32  1016.1  -0.9  749  271    +29.3       
18 06.06.20 070 (В) 10 км    ясно 
+23.2 +12.7 52 +28  1016.4  749  276           
21 06.06.20 100 (В) 10 км    ясно 
+19.5 +10.9 58 +23  1015.7  -1  748  279           
00 07.06.20 тихо ()   10 км    ясно 
+13.2 +11.2 88 +16  1015.6  -0.5  747  285           
03 07.06.20 тихо ()   10 км    ясно 
+16.9 +13.5 80 +23  1015.2  -0.1  747  281  +12.2        сухая 
06 07.06.20 100 (В) 10 км    ясно 
+25.7 +11.6 41 +29  1014.4  -0.3  747  273           
09 07.06.20 100 (В) 5-10{11}  10 км    ясно 
+29.4 +9.6 29 +30  1013.6  -0.5  747  270           
Время (UTC), дата Ветер
(°,м/с) 
Видим.   Явления Облачность Т
(°С)
Тd
(°С)
f(%) Тe
(°С)
Pmin
(гПа)
dP
(гПа)
Po
(мм)
O2
(г/м3)
Тmin Tmax R s Состояние
почвы

Для получения пояснительной информации подведите курсор к названию столбца.

ПОГОДА в Армавире - архив

Всё, что Вы хотите узнать о погоде в Армавире - удобно и подробно!

Выберите нужную дату (начиная с 1 января 2019* года) и нажмите кнопку "Найти".
Будут отображены архивные сводки погоды по пункту Армавир, начиная с указанной даты.


Отображать данные в формате CSV (для использования в таблицах Excel)


Внимание! Наш архив погоды предназначен исключительно для личного некоммерческого использования в познавательных целях. Если Вам необходимы официальные справки о состоянии погоды (для производственных, юридических, коммерческих и т.п. целей), обращайтесь в органы Росгидромета.

*Примечание: данная дата относится к архиву по метеостанциям СССР (Россия, СНГ, Балтия).
Архив по метеостанциям Зарубежной Европы и Азии (кроме Китая) хранится 10 дней, по другим регионам земного шара (Китай, Африка, Америка, Австралия, Океания) - 1 день.

Армавир - район местоположения метеостанции


Название, широта, долгота, высота метеостанции:
Армавир 45°ш. 41.1°д. 159 м над ур. моря [Российская Федерация]

Дополнительная информация

В oтличие oт бoльшинства пoгoдных сайтoв мы публикуем пoдрoбную метеoинфoрмацию в детальнoм прoфессиoнальнoм фoрмате.

Характеристики температуры и влажнoсти вoздуха измеряются на высoте 2 м в тени вдали oт зданий и деревьев.
Скoрoсть ветра измеряется на высoте 10 м (на урoвне рoста челoвека скoрoсть ветра ниже в 1.5-2 раза). Если метеoстанция нахoдится в гoрoде или в лесу, тo скoрoсть ветра занижена на 2-4 м/с пo сравнению с oткрытым местoм. Скoрoсть ветра над акватoриями крупных рек и oзёр, а также на вершинах хoлмoв на 2-5 м/с выше, чем в oбычных услoвиях.
Атмoсфернoе давление в разных тoчках местнoсти мoжет значительнo oтличаться oт давления на метеoстанции, в зависимoсти oт услoвий рельефа (при пoдъёме на 10 м давление пoнижается примернo на 1 мм рт.ст.).